Flag for Germany Weather past 2 weeks in Ingelheim am Rhein, Rhineland-Palatinate, Germany

Now
45 °F

Overcast.


Feels Like: 43 °F
Forecast: 31 / 59 °F
Wind: 5 mph from North

Location: Wiesbaden Airport

Current Time: Apr 28, 2015 at 3:14:20 AM

Latest Report: Apr 28, 2015 at 1:58 AM


Visibility: N/A

Pressure: 29.78 "Hg

Humidity: 87%

Dew point: 41 °F

Location of Ingelheim am RheinLocation

Historic Weather in Ingelheim am Rhein — Graph

°F

Ingelheim am Rhein temperature yesterday

Maximum temperature yesterday: 57 °F (at 10:58 AM)
Minimum temperature yesterday: 46 °F (at 10:58 PM)
Average temperature yesterday: 53 °F

Past Weeks' High & Low Weather Summary

 TemperatureHumidityPressure
High76 °F (Apr 15, 3:58 PM)100% (Apr 26, 1:58 AM)30.84 "Hg (Apr 26, 1:58 AM)
Low37 °F (Apr 14, 4:58 AM)23% (Apr 21, 2:58 PM)29.57 "Hg (Apr 27, 6:58 AM)
Average55 °F62%30.08 "Hg
* Reported Apr 13 1:58 AM — Apr 28 1:58 AM, Ingelheim am Rhein, Weather by CustomWeather, © 2015

Note: Actual official high and low records may vary slightly from our data, if they occured in-between our weather recording intervals... More about our weather records

Advertising

Ingelheim am Rhein weather history for previous 24 hours

 ConditionsComfort  
Time TempWeatherWind HumidityBarometerVisibility
1:58 AM
Tue, Apr 28
45 °FOvercast.5 mph87%29.78 "HgN/A
12:58 AM46 °FOvercast.13 mph82%29.76 "HgN/A
11:58 PM
Mon, Apr 27
46 °FOvercast.8 mph82%29.75 "HgN/A
10:58 PM46 °FOvercast.8 mph87%29.74 "HgN/A
10:03 PM46 °FMostly cloudy.7 mph87%29.72 "HgN/A
9:58 PM47 °FOvercast.7 mph89%29.73 "HgN/A
8:58 PM47 °FLight rain. Passing clouds.10 mph91%29.70 "HgN/A
7:58 PM49 °FLight rain. Scattered clouds.3 mph89%29.69 "HgN/A
6:58 PM51 °FLight rain. Partly sunny.10 mph94%29.68 "HgN/A
5:58 PM52 °FRain. Scattered clouds.12 mph96%29.67 "HgN/A
4:58 PM54 °FSunny.5 mph100%29.65 "HgN/A
3:58 PM54 °FRain. Passing clouds.6 mph100%29.65 "HgN/A
2:58 PM54 °FLight rain. Partly sunny.7 mph100%29.65 "HgN/A
2:00 PM54 °FRain. Partly sunny.8 mph100%29.63 "HgN/A
1:58 PM54 °FLight rain. Broken clouds.8 mph100%29.63 "HgN/A
12:58 PM55 °FLight rain. Partly sunny.5 mph100%29.63 "HgN/A
11:58 AM56 °FRain. Partly sunny.6 mph95%29.63 "HgN/A
10:58 AM57 °FOvercast.5 mph88%29.62 "HgN/A
9:59 AM55 °FOvercast.9 mph94%29.60 "HgN/A
8:58 AM55 °FOvercast.13 mph95%29.59 "HgN/A
8:00 AM55 °FLight rain. Mostly cloudy.10 mph100%29.58 "HgN/A
7:58 AM56 °FLight rain. Cloudy.9 mph100%29.58 "HgN/A
6:58 AM55 °FFog.No wind100%29.57 "Hg4 mi
6:04 AM55 °FFog.No wind100%29.57 "Hg2 mi
4:58 AM55 °FLight rain. Mostly cloudy.No wind100%29.58 "HgN/A
3:58 AM55 °FFog.No wind100%29.58 "Hg6 mi
Weather by CustomWeather, © 2015

See weather overviewHow to use our weather pages